Location: 5810 Zion Rd, Cleves, OH 45002, USA
(39.1922°N, 84.7113°W)
Time: 01:46:32
(UTC-05:00)

Courier 1B Rocket - Pass Details

Date: 06 December 2019
Orbit: 920 x 1202 km, 28.2° (Epoch: 26 January)

Event Time Altitude Azimuth Distance (km) Brightness Sun altitude
Rises 10:39:25 0° 251° (WSW) 3,598 7.9 23.1°
Reaches altitude 10° 10:42:22 10° 241° (WSW) 2,628 7.4 23.4°
Maximum altitude 10:47:43 30° 182° (S) 1,583 7.6 23.8°
Drops below altitude 10° 10:53:02 10° 123° (ESE) 2,608 8.3 24.3°
Sets 10:55:57 0° 113° (ESE) 3,565 8.6 24.5°
